Fairfield, IA

3:25 AM CDT on July 23, 2017 (GMT -0500)
Fairfield Municipal

Weather History for KFFL - November, 2011

Change the Weather History Date:

Sunday, November 6, 2011

  Actual Average Record
Temperature  
Mean Temperature 56 °F -  
Max Temperature 64 °F 50 °F 75 °F (2001)
Min Temperature 48 °F 32 °F 15 °F (1991)
Degree Days  
Heating Degree Days 9    
Growing Degree Days 6 (Base 50)    
Moisture  
Dew Point 45 °F    
Average Humidity 66    
Maximum Humidity 82    
Minimum Humidity 52    
Precipitation  
Precipitation 0.00 in - - ()
Sea Level Pressure  
Sea Level Pressure 29.90 in    
Wind  
Wind Speed 15 mph (SSW)    
Max Wind Speed 28 mph    
Max Gust Speed 31 mph    
Visibility 10 miles    
Events      
Averages and records for this station are not official NWS values.
T = Trace of Precipitation, MM = Missing Value Source: NWS Daily Summary

Daily Weather History Graph

Daily Weather History Graph

Search for Another Location

Airport or City:

Trip Planner

Search our weather history database for the weather conditions in past years. The results will help you decide how hot, cold, wet, or windy it might be!

Date:

Astronomy

Nov. 06, 2011 Rise Set
Actual Time 6:44 AM CST 4:58 PM CST
Civil Twilight 6:15 AM CST 5:26 PM CST
Nautical Twilight 5:42 AM CST 5:59 PM CST
Astronomical Twilight 5:10 AM CST 6:31 PM CST
Moon 2:43 PM CST (11/6) 2:49 AM CST (11/6)
Length of Visible Light 11h 11m
Length of Day
10h 13m
Waxing Gibbous, 86% of the Moon is Illuminated
Nov 6
Waxing Gibbous
Nov 10
Full
Nov 18
Last Quarter
Nov 25
New
Dec 2
First Quarter

Hourly Weather History & Observations

Time (CST) Temp. Windchill Dew Point Humidity Pressure Visibility Wind Dir Wind Speed Gust Speed Precip Events Conditions
12:15 AM 48.2 °F - 41.0 °F 76% 29.89 in 10.0 mi South 15.0 mph 19.6 mph N/A   Clear
12:35 AM 48.2 °F - 41.0 °F 76% 29.89 in 10.0 mi South 15.0 mph 21.9 mph N/A   Clear
12:55 AM 48.2 °F - 41.0 °F 76% 29.90 in 10.0 mi South 15.0 mph 20.7 mph N/A   Clear
1:15 AM 48.2 °F - 41.0 °F 76% 29.90 in 10.0 mi South 16.1 mph 23.0 mph N/A   Clear
1:35 AM 48.2 °F - 42.8 °F 82% 29.90 in 10.0 mi South 15.0 mph 21.9 mph N/A   Clear
1:55 AM 48.2 °F - 42.8 °F 82% 29.89 in 10.0 mi South 18.4 mph 24.2 mph N/A   Scattered Clouds
1:15 AM 50.0 °F - 42.8 °F 76% 29.88 in 10.0 mi South 17.3 mph 23.0 mph N/A   Mostly Cloudy
1:35 AM 50.0 °F - 42.8 °F 76% 29.88 in 10.0 mi South 17.3 mph - N/A   Overcast
1:55 AM 50.0 °F - 42.8 °F 76% 29.88 in 10.0 mi South 16.1 mph 24.2 mph N/A   Scattered Clouds
2:15 AM 51.8 °F - 42.8 °F 71% 29.87 in 10.0 mi South 16.1 mph 23.0 mph N/A   Mostly Cloudy
2:35 AM 50.0 °F - 42.8 °F 76% 29.87 in 10.0 mi South 16.1 mph - N/A   Scattered Clouds
2:55 AM 50.0 °F - 42.8 °F 76% 29.87 in 10.0 mi South 15.0 mph 19.6 mph N/A   Scattered Clouds
3:15 AM 50.0 °F - 42.8 °F 76% 29.86 in 10.0 mi South 13.8 mph 19.6 mph N/A   Clear
3:35 AM 51.8 °F - 42.8 °F 71% 29.85 in 10.0 mi South 15.0 mph 24.2 mph N/A   Clear
3:55 AM 51.8 °F - 42.8 °F 71% 29.85 in 10.0 mi South 17.3 mph - N/A   Clear
4:15 AM 50.0 °F - 42.8 °F 76% 29.85 in 10.0 mi South 17.3 mph 20.7 mph N/A   Clear
4:35 AM 51.8 °F - 42.8 °F 71% 29.85 in 10.0 mi South 18.4 mph 23.0 mph N/A   Clear
4:55 AM 51.8 °F - 42.8 °F 71% 29.85 in 10.0 mi South 15.0 mph 20.7 mph N/A   Clear
5:15 AM 51.8 °F - 42.8 °F 71% 29.85 in 10.0 mi South 12.7 mph - N/A   Clear
5:35 AM 51.8 °F - 42.8 °F 71% 29.85 in 10.0 mi South 12.7 mph - N/A   Clear
5:55 AM 51.8 °F - 42.8 °F 71% 29.85 in 10.0 mi South 10.4 mph - N/A   Clear
6:15 AM 51.8 °F - 42.8 °F 71% 29.85 in 10.0 mi South 10.4 mph - N/A   Clear
6:35 AM 51.8 °F - 42.8 °F 71% 29.85 in 10.0 mi South 11.5 mph 16.1 mph N/A   Clear
6:55 AM 50.0 °F - 42.8 °F 76% 29.85 in 10.0 mi South 11.5 mph - N/A   Clear
7:15 AM 51.8 °F - 42.8 °F 71% 29.86 in 10.0 mi South 12.7 mph - N/A   Clear
7:35 AM 51.8 °F - 42.8 °F 71% 29.87 in 10.0 mi South 10.4 mph - N/A   Clear
7:55 AM 51.8 °F - 44.6 °F 76% 29.87 in 10.0 mi South 11.5 mph 17.3 mph N/A   Clear
8:15 AM 55.4 °F - 44.6 °F 67% 29.87 in 10.0 mi South 15.0 mph - N/A   Clear
8:35 AM 55.4 °F - 44.6 °F 67% 29.88 in 10.0 mi South 15.0 mph 21.9 mph N/A   Clear
8:55 AM 55.4 °F - 46.4 °F 72% 29.88 in 10.0 mi South 16.1 mph 21.9 mph N/A   Scattered Clouds
9:15 AM 57.2 °F - 46.4 °F 67% 29.88 in 10.0 mi South 13.8 mph 25.3 mph N/A   Mostly Cloudy
9:35 AM 57.2 °F - 46.4 °F 67% 29.89 in 10.0 mi SSW 18.4 mph 24.2 mph N/A   Mostly Cloudy
9:55 AM 60.8 °F - 48.2 °F 63% 29.89 in 10.0 mi SSW 18.4 mph 24.2 mph N/A   Mostly Cloudy
10:15 AM 60.8 °F - 48.2 °F 63% 29.90 in 10.0 mi SSW 21.9 mph 27.6 mph N/A   Overcast
10:35 AM 60.8 °F - 48.2 °F 63% 29.90 in 10.0 mi SSW 19.6 mph 29.9 mph N/A   Overcast
10:55 AM 62.6 °F - 48.2 °F 59% 29.90 in 10.0 mi SSW 23.0 mph 28.8 mph N/A   Overcast
11:15 AM 64.4 °F - 48.2 °F 56% 29.90 in 10.0 mi SW 27.6 mph - N/A   Overcast
11:35 AM 62.6 °F - 48.2 °F 59% 29.91 in 10.0 mi SW 17.3 mph 31.1 mph N/A   Overcast
11:55 AM 62.6 °F - 48.2 °F 59% 29.90 in 10.0 mi SW 18.4 mph 28.8 mph N/A   Overcast
12:15 PM 62.6 °F - 46.4 °F 55% 29.90 in 10.0 mi SW 23.0 mph 27.6 mph N/A   Overcast
12:35 PM 62.6 °F - 46.4 °F 55% 29.90 in 10.0 mi SW 23.0 mph 27.6 mph N/A   Overcast
12:55 PM 64.4 °F - 46.4 °F 52% 29.90 in 10.0 mi SSW 23.0 mph 27.6 mph N/A   Mostly Cloudy
1:15 PM 64.4 °F - 46.4 °F 52% 29.91 in 10.0 mi SW 20.7 mph 26.5 mph N/A   Scattered Clouds
1:35 PM 64.4 °F - 46.4 °F 52% 29.91 in 10.0 mi SW 16.1 mph 23.0 mph N/A   Mostly Cloudy
1:55 PM 62.6 °F - 46.4 °F 55% 29.92 in 10.0 mi SW 17.3 mph 24.2 mph N/A   Overcast
2:15 PM 64.4 °F - 46.4 °F 52% 29.92 in 10.0 mi WSW 15.0 mph 18.4 mph N/A   Overcast
2:35 PM 64.4 °F - 46.4 °F 52% 29.92 in 10.0 mi SW 16.1 mph 20.7 mph N/A   Mostly Cloudy
2:55 PM 64.4 °F - 46.4 °F 52% 29.93 in 10.0 mi SW 16.1 mph 23.0 mph N/A   Scattered Clouds
3:15 PM 64.4 °F - 46.4 °F 52% 29.93 in 10.0 mi SSW 17.3 mph - N/A   Scattered Clouds
3:35 PM 64.4 °F - 46.4 °F 52% 29.94 in 10.0 mi SW 13.8 mph - N/A   Mostly Cloudy
3:55 PM 62.6 °F - 46.4 °F 55% 29.95 in 10.0 mi SW 12.7 mph 20.7 mph N/A   Mostly Cloudy
4:15 PM 62.6 °F - 46.4 °F 55% 29.95 in 10.0 mi SW 11.5 mph 18.4 mph N/A   Scattered Clouds
4:35 PM 60.8 °F - 46.4 °F 59% 29.96 in 10.0 mi SSW 6.9 mph - N/A   Clear
4:55 PM 57.2 °F - 44.6 °F 63% 29.97 in 10.0 mi SSW 5.8 mph - N/A   Clear
5:15 PM 55.4 °F - 44.6 °F 67% 29.98 in 10.0 mi SSW 4.6 mph - N/A   Scattered Clouds
5:35 PM 57.2 °F - 46.4 °F 67% 29.99 in 10.0 mi SSW 4.6 mph - N/A   Mostly Cloudy
5:55 PM 55.4 °F - 46.4 °F 72% 30.00 in 10.0 mi SW 3.5 mph - N/A   Mostly Cloudy
6:15 PM 55.4 °F - 44.6 °F 67% 30.01 in 10.0 mi SW 3.5 mph - N/A   Scattered Clouds
6:35 PM 53.6 °F - 44.6 °F 72% 30.02 in 10.0 mi West 3.5 mph - N/A   Clear
6:55 PM 53.6 °F - 44.6 °F 72% 30.02 in 10.0 mi WNW 4.6 mph - N/A   Clear
7:15 PM 51.8 °F - 44.6 °F 76% 30.03 in 10.0 mi Calm Calm - N/A   Clear
7:35 PM 46.4 °F - 39.2 °F 76% 30.04 in 10.0 mi Calm Calm - N/A   Clear
7:55 PM 46.4 °F 44.3 °F 39.2 °F 76% 30.04 in 10.0 mi NW 4.6 mph - N/A   Scattered Clouds
8:15 PM 48.2 °F - 39.2 °F 71% 30.05 in 10.0 mi NW 4.6 mph - N/A   Scattered Clouds
8:35 PM 48.2 °F - 41.0 °F 76% 30.06 in 10.0 mi NNW 4.6 mph - N/A   Mostly Cloudy
8:55 PM 48.2 °F - 41.0 °F 76% 30.06 in 10.0 mi North 5.8 mph - N/A   Overcast
9:15 PM 48.2 °F - 41.0 °F 76% 30.07 in 10.0 mi North 4.6 mph - N/A   Mostly Cloudy
9:35 PM 48.2 °F - 41.0 °F 76% 30.08 in 10.0 mi North 4.6 mph - N/A   Overcast
9:55 PM 50.0 °F - 41.0 °F 71% 30.09 in 10.0 mi NNW 4.6 mph - N/A   Overcast
10:15 PM 48.2 °F - 39.2 °F 71% 30.08 in 10.0 mi North 4.6 mph - N/A   Mostly Cloudy
10:35 PM 48.2 °F - 41.0 °F 76% 30.09 in 10.0 mi North 3.5 mph - N/A   Overcast
10:55 PM 48.2 °F - 41.0 °F 76% 30.10 in 10.0 mi North 3.5 mph - N/A   Overcast